#timestamp,LO_Frequency,Hit,StdDev 
1638586815.5,286047001.6,N
1638586835.3,286047003.6,N
1638586855.2,286047001.6,N
1638586875.0,286047002.2,N
1638586875.9,286047002.2,N
1638586895.8,286047002.7,N
1638586915.6,286047000.8,N
1638586935.4,286046999.8,N
1638586955.3,286047001.7,N
1638586975.1,286047001.7,N
1638586995.8,286047004.3,N
1638587015.7,286047000.1,N
1638587035.5,286047001.6,N
1638587055.4,286047001.6,N
1638587075.2,286047004.4,N
1638587095.0,286047004.3,N
1638587095.9,286047004.3,N
1638587115.8,286047001.9,N
1638587135.6,286047002.1,N
1638587155.4,286047002.5,N
1638587175.3,286047004.2,N
1638587195.1,286047003.9,N
1638587215.9,286047001.3,N
1638587235.7,286047003.7,N
1638587255.5,286047003.3,N
1638587275.4,286047003.7,N
1638587295.2,286047003.6,N
1638587315.0,286047003.7,N
1638587315.9,286047003.7,N
1638587335.8,286047002.9,N
1638587355.6,286047003.9,Y
1638587375.5,286047000.2,P
1638587395.3,286047001.6,N
1638587415.1,286047003.5,P
1638587435.9,286047003.4,N
1638587455.7,286047003.2,N
1638587475.6,286047003.8,Y
1638587495.4,286047001.5,P
1638587515.2,286047002.3,P
1638587535.1,286046999.9,N
1638587536.0,286046999.9,N
1638587555.8,286047000.6,N
1638587575.6,286046998.3,N
1638587595.5,286046998.5,N
1638587615.3,286046998.2,N
1638587635.2,286046998.6,N
1638587655.9,286047000.7,N
1638587675.7,286047000.7,N
1638587695.6,286047000.3,N
1638587715.4,286047000.4,N
1638587735.2,286047001.2,N
1638587755.1,286047000.7,N
1638587756.0,286047000.7,N
1638587775.8,286046998.7,N
1638587795.7,286046999.0,N
1638587815.5,286046999.2,N
1638587835.3,286046999.2,N
1638587855.2,286046997.5,N
1638587875.0,286046997.1,N
1638587875.9,286046997.1,N
1638587895.8,286046997.6,N
1638587915.6,286046997.2,N
1638587935.4,286046997.2,N
1638587955.3,286046999.6,N
1638587975.1,286046999.5,N
1638587995.8,286046997.0,N
1638588015.7,286046996.5,N
1638588035.5,286046997.7,N
1638588055.3,286046997.9,N
1638588075.2,286046997.3,N
1638588095.0,286046997.8,N
1638588095.9,286046997.8,N
1638588115.8,286046997.7,N
1638588135.6,286046995.2,Y
1638588155.4,286046998.7,P
1638588175.3,286046998.7,P
1638588195.1,286046998.1,P
1638588215.9,286047000.9,Y
1638588235.7,286047002.8,P
1638588255.5,286047002.5,N
1638588275.4,286046998.2,N
1638588295.2,286047000.8,N
1638588315.1,286047000.3,N
1638588316.0,286047000.3,N
1638588335.8,286046999.7,N
1638588355.6,286047000.1,N
1638588375.5,286047000.1,N
1638588395.3,286047002.2,N
1638588415.1,286047000.1,N
1638588435.9,286047002.6,N
1638588455.7,286046999.8,N
1638588475.6,286047002.3,N
1638588495.4,286047002.4,N
1638588515.2,286047002.5,N
1638588535.1,286047002.4,N
1638588536.0,286047002.4,N
1638588555.8,286047004.2,N
1638588575.6,286047003.7,N
1638588595.5,286047002.3,N
1638588615.3,286046999.8,N
1638588635.2,286047001.0,N
1638588655.9,286047000.3,N
1638588675.7,286047002.8,N
1638588695.6,286047000.3,N
1638588715.4,286046999.8,N
1638588735.2,286047002.3,N
1638588755.1,286047001.2,N
1638588756.0,286047001.2,N
1638588775.8,286046999.8,N
1638588795.7,286047001.0,N
1638588815.5,286047001.2,N
1638588835.3,286047000.3,N
1638588855.2,286047000.5,N
1638588875.0,286047002.8,N
1638588875.9,286047002.8,N
1638588895.7,286047002.4,N
1638588915.6,286047002.3,N
1638588935.4,286047002.3,N
1638588955.3,286047002.4,N
1638588975.1,286046999.7,N
1638588976.0,286046999.7,N
1638588995.8,286047002.8,N
1638589015.7,286047004.4,Y
1638589035.5,286046998.1,P
1638589055.4,286047000.5,N
1638589075.2,286046999.7,N
1638589095.0,286047002.4,N
1638589095.9,286047002.4,N
1638589115.8,286047002.5,N
1638589135.6,286046999.7,N
1638589155.4,286047000.9,N
1638589175.3,286047000.3,N
1638589195.1,286046998.3,N
1638589215.9,286047001.1,N
1638589235.7,286047000.0,N
1638589255.5,286046999.9,N
1638589275.4,286046998.1,N
1638589295.2,286046998.4,N
1638589315.0,286047001.2,N
1638589315.9,286047001.2,N
1638589335.8,286046998.1,N
1638589355.6,286046998.3,N
1638589375.5,286047002.3,N
1638589395.3,286047002.3,N
1638589415.1,286046998.2,N
1638589435.9,286047001.2,N
1638589455.7,286046998.6,N
1638589475.6,286046998.6,N
1638589495.4,286047001.1,N
1638589515.2,286047000.6,N
1638589535.1,286047000.3,N
1638589536.0,286047000.3,N
1638589555.8,286047000.3,N
1638589575.6,286047002.4,N
1638589595.5,286046998.3,N
1638589615.3,286046998.3,N
1638589635.2,286046999.0,N
1638589655.9,286046998.6,N
1638589675.7,286046999.8,N
1638589695.6,286046999.8,N
1638589715.4,286047002.5,N
1638589735.2,286047002.5,N
1638589755.1,286047000.9,N
1638589756.0,286047000.9,N
1638589775.8,286047001.0,N
1638589795.7,286047000.6,N
1638589815.5,286047000.3,N
1638589835.3,286047002.6,N
1638589855.2,286047002.6,N
1638589875.0,286047002.6,N
1638589875.9,286047002.6,N
1638589895.7,286047002.0,N
1638589915.6,286047001.5,N
1638589935.4,286047004.0,N
1638589955.3,286047002.0,N
1638589975.1,286047003.9,N
1638589995.8,286047004.0,N
1638590015.7,286047001.5,N
1638590035.5,286047003.7,N
1638590055.4,286047002.1,N
1638590075.2,286047004.4,N
1638590095.0,286047001.9,N
1638590095.9,286047001.9,N
1638590115.8,286047001.7,N
1638590135.6,286047002.0,N
1638590155.4,286047000.7,N
1638590175.3,286047002.8,N
1638590195.1,286047002.4,N
1638590215.9,286047002.1,N
1638590235.7,286047002.8,N
1638590255.5,286047002.3,N
1638590275.4,286046999.7,N
1638590295.2,286047002.0,N
1638590315.1,286047002.4,N
1638590316.0,286047002.4,N
1638590335.8,286046999.7,N
1638590355.6,286047002.5,N
1638590375.5,286047001.8,N
1638590395.3,286047004.0,Y
